User: anonymous   Login
Location: *
(43.9900°N, 3.4811°E)
Time: 19:04:11
(UTC+00:00)
Language:

Cosmos 1269 Rocket - Orbit

View from above orbital plane
View from above orbital plane
View from above satellite
View from above satellite

Ground track
Ground track

The orbit data is extracted from the following two-line orbital elements,

1 12443U 81041B   19292.82396791  .00000035  00000-0  21407-4 0  9992
2 12443  74.0563  43.1466 0005524 289.4207  70.6348 14.34718971 10591
Epoch (UTC): 19 October 2019 19:46:30
Eccentricity: 0.0005524
inclination: 74.0563°
perigee height: 772 km
apogee height: 780 km
right ascension of ascending node: 43.1466°
argument of perigee: 289.4207°
revolutions per day: 14.34718971
mean anomaly at epoch: 70.6348°
orbit number at epoch: 1059

The dashed part of the orbit path shows where the satellite is in the earth's shadow,  

DLR